Погода в Ромашках

Россия / Волгоградская область     50°11′48″N   46°40′29″E
темп.,
°C
ветер,
м/с
пор.,
м/с
влажн.,
%
обл.,
%
осадки,
мм/ч
давл.,
гПа
погр.,
м
16 сентября, чт
чт1600:00+12ссз34481 0.0 101356
03:00+10ссз36650 0.0 1013106
06:00+9сз34710 0.0 101393
09:00+14сз56433 0.0 10141116
12:00+17сз78325 0.0 10141816
15:00+14ссз10114273 0.0 10141205
18:00+13ссз711402 0.0 1015653
21:00+9с34610 0.0 101665
17 сентября, пт
пт1700:00+8ссз48680 0.0 1017193
03:00+7с33805 0.0 101845
06:00+7ссз22855 0.0 101938
09:00+12сз23615 0.0 1019773
12:00+16сз454168 0.0 10181693
15:00+17сз453529 0.0 10171819
18:00+13ссв344485 0.0 101744
21:00+11в455078 0.0 101882
18 сентября, сб
сб1800:00+10юв3652100 0.0 1017122
03:00+11вюв2354100 0.0 101785
06:00+10всв3453100 0.0 1018140
09:00+13всв774295 0.0 1019758
12:00+14всв554799 0.0 10201016
15:00+13св5550100 0.0 1020768
18:00+13св3452100 0.0 1020246
21:00+10всв335774 0.0 102150
19 сентября, вс
вс1900:00+9всв4843100 0.0 1022155
03:00+8в493986 0.0 1022172
06:00+8в5104297 0.0 1023234
09:00+12в6938100 0.0 1023471
12:00+14вюв6833100 0.0 1023740
15:00+16вюв773193 0.0 1022927
18:00+13вюв473980 0.0 1022127
21:00+13вюв71339100 0.0 1021356
20 сентября, пн
пн2000:00+13вюв81538100 0.0 1020477
03:00+12вюв8153998 0.0 1020403
06:00+12вюв71437100 0.0 1020491
09:00+13вюв81539100 0.1 1019512
12:00+16юв91529100 0.0 1018730
15:00+17юв81323100 0.0 1017899
18:00+17юв61127100 0.0 1018749
21:00+17вюв71324100 0.2 1017553